Regional Weather Roundup
Issued by NWS Goodland, KS

Home | Current Version | Previous Version | Graphics & Text | Print | Product List | Glossary On
Versions: 1 2 3 4 5 6 7 8 9 10 11 12 13 14 15 16 17 18 19 20 21 22 23 24 25 26 27 28 29 30 31 32 33 34 35 36 37 38 39 40 41 42 43 44 45 46 47 48 49 50
000
ASUS43 KGLD 241608
RWRGLD

GOODLAND FORECAST AREA HOURLY WEATHER ROUNDUP
NATIONAL WEATHER SERVICE GOODLAND KS
900 AM MST SAT JAN 24 2015

...OFFICIAL OBSERVATIONS...

CITY           SKY/WX    TMP DP  RH WIND       PRES   REMARKS
GOODLAND KS    SUNNY     41  27  57 W10       30.04F
HILL CITY KS   SUNNY     42  27  55 W12       30.03F
IMPERIAL NEB   CLOUDY    35  24  64 W9        30.00F
MCCOOK NEB     MOSUNNY   37  26  64 W10       30.00F
AKRON CO       CLOUDY    30  23  75 W7        30.03F
BURLINGTON CO  SUNNY     39  27  62 W10       30.05F
LIMON CO       MOSUNNY   36  23  59 W6        30.08F
$$

...UNOFFICIAL OBSERVATIONS...

CITY           SKY/WX    TMP DP  RH WIND       PRES   REMARKS
COLBY KS       SUNNY     43  34  70 SW12      30.03F
GOVE KS          N/A     41  32  70 MISG        N/A
NORTON KS      SUNNY     43  25  49 W14       29.99F
SHARON SPRINGS   N/A     39  30  71 W10         N/A
KIT CARSON CO    N/A     34  27  75 MISG        N/A
YUMA CO          N/A     34  26  71 W15         N/A
$$



USA.gov is the U.S. government's official web portal to all federal, state and local government web resources and services.